Skip Page Navigation
NASA JPL Caltech
NASA Logo - Jet Propulsion Laboratory + View the NASA Portal
+ Center for Near-Earth Object Studies
JPL Home Earth Solar System Stars & Galaxies Technology
JPL Solar System Dynamics
BODIES ORBITS EPHEMERIDES TOOLS PHYSICAL DATA DISCOVERY FAQ SITE MAP
JPL Small-Body Database Browser
Search: [ help ]  
34631 (2000 UY107)
Classification: Main-belt Asteroid          SPK-ID: 2034631
Ephemeris | Orbit Diagram | Orbital Elements | Mission Design | Physical Parameters | Discovery Circumstances | Close-Approach Data ]

[ show orbit diagram ]
Orbital Elements at Epoch 2459000.5 (2020-May-31.0) TDB
Reference: JPL 21 (heliocentric ecliptic J2000)
 Element Value Uncertainty (1-sigma)   Units 
e .1796156940434231 3.373e-08  
a 3.138616609464574 1.8289e-08 au
q 2.574871808819379 1.0135e-07 au
i 10.2039629122148 3.8864e-06 deg
node 104.3476826353038 2.4148e-05 deg
peri 18.93259559028055 2.7405e-05 deg
M 139.5298567424159 1.4616e-05 deg
tp 2458213.326477853030
(2018-Apr-04.82647785)
7.9017e-05 TDB
period 2030.980856635276
5.56
1.7752e-05
4.86e-08
d
yr
n .1772542556587223 1.5493e-09 deg/d
Q 3.702361410109769 2.1574e-08 au
  Orbit Determination Parameters
   # obs. used (total)      1367  
   data-arc span      12622 days (34.56 yr)  
   first obs. used      1984-12-28  
   last obs. used      2019-07-20  
   planetary ephem.      DE431  
   SB-pert. ephem.      SB431-N16  
   condition code      0  
   norm. resid. RMS      .56297  
   source      ORB  
   producer      Otto Matic  
   solution date      2020-Feb-23 03:31:58  

Additional Information
 Earth MOID = 1.59315 au 
 Jupiter MOID = 1.41453 au 
 T_jup = 3.162 
[ show covariance matrix ]

Ephemeris | Orbit Diagram | Orbital Elements | Mission Design | Physical Parameters | Discovery Circumstances | Close-Approach Data ]

Physical Parameter Table
Parameter Symbol Value Units Sigma Reference Notes
absolute magnitude H 13.4   n/a MPO474200  
diameter diameter 14.777 km 0.498 urn:nasa:pds:neowise_diameters_albedos::2.0[mainbelt] (http://adsabs.harvard.edu/abs/2011ApJ...741...68M)  
geometric albedo albedo 0.061   0.008 urn:nasa:pds:neowise_diameters_albedos::2.0[mainbelt] (http://adsabs.harvard.edu/abs/2011ApJ...741...68M)  

34631 (2000 UY107)          Discovered 2000-Oct-30 by LINEAR at Socorro
Reference: 20020128/Numbers.arcLast Updated: 2004-04-19

[ show close-approach data ]
Alternate Designations
 2000 UY107 = 1984 YF5 
Ephemeris | Orbit Diagram | Orbital Elements | Mission Design | Physical Parameters | Discovery Circumstances | Close-Approach Data ]
ABOUT SSD CREDITS/AWARDS PRIVACY/COPYRIGHT GLOSSARY LINKS
FirstGov 2020-Oct-25 23:58 UT
(server date/time)  
NASA Home Page
Site Manager:   Ryan S. Park
Webmaster  Alan B. Chamberlin